User: anonymous
Location: Unspecified
(0.0000°N, 0.0000°E)
Time: 19:27:25
(UTC+02:00)
Language:

Ariane H10 - Orbit

View from above orbital plane
View from above orbital plane
View from above satellite
View from above satellite

Ground track
Ground track

The orbit data is extracted from the following two-line orbital elements,

1 21815U 91084C   14258.57048950  .00000055  00000-0  39838-3 0  6257
2 21815 003.7608 132.7516 7194976 337.9153 210.5542 02.31116681189031
Epoch (UTC): 15 September 2014 13:41:30
Eccentricity: 0.7194976
inclination: 3.7608°
perigee height: 400 km
apogee height: 35172 km
right ascension of ascending node: 132.7516°
argument of perigee: 337.9153°
revolutions per day: 2.31116681
mean anomaly at epoch: 210.5542°
orbit number at epoch: 18903

The dashed part of the orbit path shows where the satellite is in the earth's shadow,  

DLR